195 visiteurs
Prévisions de votre ville :
Vigilance : 7 départements Mise à jour le 15/10/2019 à 16:07 - Voir la carte

Paris Roissy CDG (95380) le 16/10/2019 à 03:30 Choisir station

11°C 87 % S Vit. moyenne 20 kmh/h

Relevés météo quotidiens pour la station de :

UTC
S: Synop
M: Metar
Loc T°C
(°C)
Td
(°C)
HR
(%)
Vis
(km)
Néb
(octa)
Vent
(km/h)
Pression
(mb)
Précipitations
(mm)
Temps
              MOY
10 min
DIR RAF 1h MESURE VAR SUR 3h    
S 00 h 02h 20.2 17.0 82 - 2 7 1012.6 +1.1/3h 0.0/6h - 0.0/3h -
S 01 h 03h 19.4 15.7 79 - 4 7 1012.3 +0.6/3h 0.0/1h -
S 02 h 04h 18.7 15.0 79 - 6 7 1012.0 0.0/3h 0.0/1h -
S 03 h 05h 18.3 15.4 83 - 4 9 1011.5 -1.2/3h 0.0/3h -
S 04 h 06h 17.8 14.7 82 - 4 11 1011.8 -0.6/3h 0.0/1h -
S 05 h 07h 18.1 15.2 83 - 6 7 1012.2 +0.2/3h 0.0/1h -
S 06 h 08h 20.6 16.4 77 - 4 9 1012.6 +1.2/3h 0.0/12h - 0.0/3h - 0.0/24h -
S 07 h 09h 24.4 16.9 63 - 2 7 1012.8 +1.3/3h 0.0/1h -
S 08 h 10h 26.3 17.4 58 - 6 11 1012.9 +1.0/3h 0.0/1h -
S 09 h 11h 29.7 16.1 44 - 6 13 1011.9 -0.3/3h 0.0/3h -
S 10 h 12h 33.4 15.9 35 - 9 20 1011.7 -0.8/3h 0.0/1h -
S 11 h 13h 35.0 14.8 30 - 11 22 1011.7 -0.8/3h 0.0/1h -
S 12 h 14h 35.3 11.7 24 - 13 28 1011.6 -0.1/3h 0.0/6h - 0.0/3h -
S 13 h 15h 36.1 10.3 21 - 11 24 1011.3 -0.3/3h 0.0/1h -
S 14 h 16h 35.8 9.3 20 - 13 28 1011.0 -0.7/3h 0.0/1h -
S 15 h 17h 33.8 12.7 28 - 7 22 1010.7 -1.0/3h 0.0/3h -
S 16 h 18h 33.6 13.1 29 - 6 15 1010.4 -1.0/3h 0.0/1h -
S 17 h 19h 33.2 14.3 32 - 4 13 1010.3 -0.8/3h 0.0/1h -
S 18 h 20h 31.5 16.7 41 - 2 6 1010.2 -0.5/3h 0.0/12h - 0.0/3h -
S 19 h 21h 29.5 17.0 47 - 9 22 1010.8 +0.3/3h 0.0/1h -
S 20 h 22h 26.8 16.7 54 - 4 15 1010.8 +0.3/3h 0.0/1h -
S 21 h 23h 24.9 16.6 60 - 4 9 1011.1 +0.6/3h 0.0/3h -
S 22 h 00h 23.2 16.3 65 - 4 9 1010.9 -0.2/3h 0.0/1h -
S 23 h 01h 22.7 16.0 66 - 6 9 1011.2 +0.2/3h 0.0/1h -
evolution des temperatures
cumul des precipitations
vent moyen et rafales
pression atmospherique

Un tiret (-) signifie que les données ne sont pas disponibles.

Passez la souris sur les pictos temps pour avoir plus de précisions. Passez les flèches sur l'icône de la direction du vent pour voir la direction précise en degrés.

Les données de l'heure en cours sont disponibles à partir de H+15 minutes.


S signifie station Synop, plus complète qu'une station Metar (M). Il y a +1h de différence entre l'heure UTC et l'heure légale en hiver et +2h en été.

Td est la mesure du point de rosée.

HR est l'humidité relative/p>

Vis est la visibilité

Néb est la nébulosité du ciel (couverture nuageuse) exprimée en octas (de 0/8 à 8/8).

Vent moy 10 min donne le vent moyen sur les 10 minutes qui précèdent le relevé.

Vent raf 1h donne la rafale maximale mesurée dans l'heure qui précède le relevé.


Les données les plus anciennes remontent à avril 2014.

Les données présentées sur cette page proviennent des stations météo officielles. Les relevés sont effectués aux normes en vigueur (anémomètre à 10m de haut, thermomètre sous abri normalisé à 2m du sol...)

Météo 60 décline toute responsabilité en cas d'absence de données, d'erreurs, de mauvaise utilisation ou interprétation et n'est pas habilité à fournir des certificats intempéries.